Location: Theydon Bois
(51.6750°N, 0.1050°E)
Time: 20:32:27
(UTC+01:00)

Daily predictions for brighter satellites

Satellite Brightness Start Highest point End
(mag) Time Altitude Azimuth Time Altitude Azimuth Time Altitude Azimuth
SPOT 1/Viking Rocket 4.2 21:30:12 10° SE 21:35:03 42° ENE 21:39:54 10° N
Tsikada Rocket 4.2 21:30:18 10° NNW 21:36:44 83° W 21:43:09 10° S
H-2A R/B 2.0 21:34:18 10° SSE 21:39:13 78° ENE 21:44:16 10° NNW
CZ-4C R/B 3.9 21:34:50 10° NW 21:40:51 38° NNE 21:47:44 10° E
USA 234 3.3 21:34:32 10° ENE 21:41:07 70° SE 21:47:40 10° SW
Cosmos 2016 Rocket 4.3 21:38:09 10° SSW 21:44:14 70° WNW 21:50:24 10° N
Terra 3.1 21:40:45 10° ESE 21:44:47 28° ENE 21:48:51 10° N
Cosmos 2322 Rocket 2.3 21:39:38 10° NNW 21:45:17 68° ENE 21:50:52 10° SE
NOSS 3-2 (A) 4.0 21:40:22 10° S 21:45:47 37° ESE 21:51:45 10° NE
Cosmos 724 4.3 21:40:11 10° SW 21:45:58 84° SE 21:51:50 10° NE
Cosmos 2082 Rocket 2.6 21:40:42 10° SW 21:46:22 73° WNW 21:52:05 10° NNE
NOSS 3-2 (C) 4.3 21:43:26 10° S 21:48:28 29° ESE 21:53:58 10° ENE
Cosmos 1975 3.0 21:44:31 10° NNW 21:48:36 79° W 21:52:38 10° S
SL-16 R/B 2.3 21:45:08 10° NNW 21:50:51 78° ENE 21:56:32 10° SE
SL-23 DEB 4.0 21:48:03 10° SW 21:51:20 52° SSE 21:56:12 10° ENE
MetOp-A 4.4 21:46:09 10° S 21:51:29 72° WSW 21:56:52 10° NNW
Cosmos 1725 Rocket 4.2 21:46:42 10° SSW 21:52:53 80° W 21:59:09 10° N
Cosmos 2208 Rocket 4.3 21:48:26 10° S 21:53:23 47° ESE 21:58:20 10° NE
Aureole 2 Rocket 3.6 21:51:09 10° N 21:53:56 26° NE 21:56:31 10° ESE
Iridium 2 4.1 21:50:39 10° SSE 21:54:19 47° E 21:58:02 10° NNE
Cosmos 1898 Rocket 3.6 21:49:23 10° NNW 21:54:43 89° ENE 22:00:02 10° SSE
SJ 16-02 3.0 21:51:14 10° N 21:54:51 24° NE 21:58:27 10° ESE
BREEZE-M DEB 4.3 21:53:54 10° WSW 21:57:24 50° S 22:00:05 10° E
ERBS 3.7 21:58:02 10° W 22:01:16 41° NNW 22:04:30 10° ENE
Helios 1A 3.0 22:04:30 10° SSE 22:08:37 81° ENE 22:12:48 10° NNW
SL-08 RB Rocket 4.2 22:04:31 10° S 22:08:58 59° W 22:13:30 10° NNW
ARGOS 3.9 22:05:21 10° S 22:10:35 51° W 22:15:53 10° NNW
Cosmos 1242 Rocket 2.9 22:06:56 10° NNW 22:10:37 64° W 22:14:13 10° S
ISS -2.2 22:08:55 10° S 22:11:02 16° SE 22:13:08 10° ESE
USA 245 3.4 22:10:31 10° S 22:13:41 64° WSW 22:17:44 10° NNW
ERS-1 Rocket 3.3 22:08:41 10° S 22:13:41 67° WSW 22:18:43 10° NNW
Cosmos 2150 Rocket 4.1 22:11:26 10° NNW 22:16:55 76° ENE 22:21:33 14° SSE
Cosmos 304 Rocket 3.8 22:13:36 10° SSW 22:18:26 89° SE 22:23:18 10° NNE
Cosmos 1356 4.5 22:22:47 17° SE 22:24:47 29° E 22:27:51 10° NNE
DNEPR-1 R/B 3.6 22:20:45 10° SSW 22:25:03 66° SE 22:30:04 10° NE
CZ-2C R/B 3.7 22:22:00 14° SE 22:26:22 49° ENE 22:31:44 10° N
BREEZE-M R/B 3.1 22:24:04 10° SW 22:26:40 23° SSE 22:27:29 20° SE
Shenzhou-11 Module 3.8 22:25:09 10° SSW 22:26:44 15° S 22:26:44 15° S
CARTOSAT-1 3.7 22:23:34 15° SSE 22:27:03 65° ENE 22:31:21 10° N
CENTAUR R/B 3.5 22:22:51 12° SSE 22:27:14 26° ESE 22:32:42 10° ENE
Cosmos 990 Rocket 4.2 22:22:39 10° NNW 22:27:50 69° WSW 22:32:23 14° SSE
Meteor 1-29 3.7 22:27:16 10° NNE 22:30:33 36° E 22:32:39 18° SSE
COSMOS 2487 4.0 22:30:19 10° SW 22:33:37 38° WNW 22:36:57 10° N
ATLAS 3B R/B 2.7 22:28:20 10° SW 22:35:29 87° SE 22:42:21 10° NE
Cosmos 2298 Rocket 4.2 22:30:20 10° NNW 22:35:39 74° WSW 22:39:59 16° SSE
Spot 1 3.9 22:34:43 16° SSE 22:37:57 90° SW 22:42:04 10° NNW
Cosmos 2360 Rocket 2.2 22:32:57 10° NNW 22:38:38 78° ENE 22:43:01 17° SE
Cosmos 1980 Rocket 4.3 22:36:38 10° NW 22:40:36 20° W 22:44:34 10° SW
Lacrosse 5 rocket 1.5 22:38:14 10° WNW 22:42:39 74° NNE 22:46:11 14° ESE
Cosmos 1455 Rocket 3.4 22:39:43 10° NNW 22:44:02 63° W 22:47:41 14° S
USA 32 4.4 22:40:38 10° NNW 22:45:49 62° W 22:50:51 11° S
Cosmos 2219 Rocket 3.3 22:40:55 10° NNW 22:46:04 35° NE 22:51:01 11° ESE
Cosmos 2333 Rocket 3.5 22:41:29 10° NNW 22:46:39 34° NE 22:51:49 10° ESE
Cosmos 292 Rocket 4.2 22:44:56 16° S 22:48:22 43° ESE 22:52:53 10° NE
Nadezhda 4 Rocket 4.1 22:42:48 10° N 22:49:05 69° ENE 22:53:55 18° SSE
COSMOS 2428 3.4 22:44:53 10° NNW 22:50:24 48° NE 22:54:56 15° ESE
SPOT 5 3.5 22:47:08 12° S 22:51:00 45° W 22:55:22 10° NNW
Helios 1B rocket 2.4 22:50:34 10° NNE 22:54:45 88° ESE 22:58:24 13° SSW
Timation 2 Rocket 3.8 22:48:53 10° SSW 22:54:52 85° ESE 23:01:00 10° NNE
Meteor 2-4 Rocket 3.8 22:51:46 10° SSW 22:57:12 79° WNW 23:02:48 10° N
Okean 2 4.0 22:55:39 22° SSE 22:57:50 41° E 23:01:47 10° NNE
Cosmos 1975 Rocket 4.3 22:53:47 10° SW 22:57:53 41° WNW 23:02:00 10° N
Cosmos 1025 Rocket 3.8 22:56:22 22° SE 22:58:33 36° E 23:02:34 10° NNE
CZ-2C R/B 3.4 22:53:24 10° NNE 22:58:40 39° E 23:02:03 20° SSE
IGS 5A 3.8 22:56:57 18° S 22:59:56 61° WSW 23:04:05 10° NNW
Cosmos 1937 Rocket 4.5 22:56:03 10° NW 23:00:47 38° WSW 23:04:49 14° SSW
USA 238 DEB 4.1 22:54:50 10° WSW 23:01:43 68° NW 23:08:45 10° NE
USA 238 4.1 22:54:57 10° WSW 23:01:49 68° NW 23:08:50 10° NE
Cosmos 1356 Rocket 4.2 23:05:03 24° SE 23:07:00 37° E 23:10:59 10° NNE
ASTRO F (AKARI) 4.3 23:05:14 10° NNE 23:08:22 62° ESE 23:09:47 30° S
Nimbus 7 Rocket 4.4 23:04:00 10° NNE 23:09:52 68° ESE 23:14:30 17° S
Meteor 1-15 Rocket 4.4 23:04:06 10° NNW 23:09:55 72° W 23:14:07 19° S
Cosmos 1340 Rocket 3.3 23:11:13 13° SSW 23:14:47 61° WNW 23:18:51 10° N
Cosmos 2034 Rocket 4.0 23:09:30 14° S 23:14:50 89° E 23:21:02 10° N
H-2A R/B 3.9 23:12:36 12° ESE 23:15:29 22° ENE 23:18:46 10° N
Cosmos 2026 Rocket 4.4 23:10:53 10° N 23:16:59 52° ENE 23:20:57 21° SE
Cosmos 2322 3.8 23:12:48 10° NNW 23:18:34 76° WSW 23:22:12 23° SSE
H-2A R/B 4.3 23:16:04 10° SW 23:19:18 17° W 23:22:34 10° NW
Cosmos 1763 Rocket 3.8 23:16:41 10° SSW 23:21:59 70° WNW 23:27:17 10° NNE
Cosmos 1464 Rocket 4.4 23:15:50 10° SSW 23:22:09 64° WNW 23:28:32 10° N
Terra 2.5 23:19:01 18° SSW 23:22:21 47° W 23:26:58 10° NNW
Cosmos 841 Rocket 3.5 23:17:42 12° SSW 23:22:39 89° ESE 23:27:58 10° NNE
USA 234 3.7 23:17:40 10° ENE 23:24:08 65° NNW 23:30:38 10° W
Aureole 2 Rocket 3.9 23:26:08 10° NW 23:28:36 22° WSW 23:29:41 18° SW
Cosmos 2322 Rocket 3.8 23:24:23 10° NW 23:28:50 25° WSW 23:32:51 12° SSW
Cosmos 540 Rocket 3.5 23:25:44 21° S 23:29:07 64° ESE 23:34:16 10° NNE
CZ-4C R/B 2.9 23:23:25 10° NW 23:30:20 82° NE 23:36:36 17° SE
Spot 4 3.8 23:27:56 26° SSE 23:30:41 89° WSW 23:35:34 10° NNW
Cosmos 1536 Rocket 4.1 23:27:25 15° SSW 23:30:59 57° WNW 23:35:24 10° N
Cosmos 2227 Rocket 4.3 23:30:49 10° ESE 23:32:10 11° E 23:33:32 10° E
Cosmos 2237 Rocket 3.3 23:27:04 10° NNW 23:32:25 40° NE 23:37:09 13° ESE
SJ 16-02 1.7 23:29:26 10° NNW 23:33:47 55° WSW 23:36:00 27° S
SL-16 R/B 4.0 23:30:09 10° NW 23:34:22 22° WSW 23:38:26 10° SSW
Cosmos 1066 Rocket 4.2 23:32:08 25° S 23:35:14 64° E 23:40:38 10° NNE
NOSS 3-2 (A) 4.0 23:30:12 10° WSW 23:36:17 65° NW 23:43:12 10° NE
ERBS 4.1 23:35:14 10° WNW 23:38:20 33° N 23:41:27 10° ENE
Cosmos 1726 Rocket 3.8 23:34:07 10° N 23:38:28 58° ENE 23:40:30 29° SE
NOSS 3-2 (C) 3.7 23:32:36 10° SW 23:38:44 77° NW 23:45:40 10° NE
Cosmos 2058 Rocket 3.8 23:34:27 10° N 23:38:49 44° ENE 23:40:59 25° SE
Cosmos 372 Rocket 4.2 23:34:18 10° NNW 23:39:23 59° WSW 23:42:08 26° S
BREEZE-M DEB 4.3 23:38:03 10° W 23:40:21 41° SW 23:40:21 41° SW
Cosmos 2195 Rocket 4.4 23:37:38 10° N 23:43:48 86° E 23:47:31 26° SSE
Cosmos 1544 3.1 23:42:53 10° NNW 23:46:37 75° W 23:47:59 37° S
ISS -3.8 23:43:49 10° WSW 23:47:01 56° SSE 23:50:15 10° E
Cosmos 1634 Rocket 4.1 23:43:12 24° S 23:47:07 70° E 23:53:26 10° NNE
ALOS 2 3.1 23:47:28 26° SE 23:49:36 49° ENE 23:53:52 10° N
Mayak 0.0 23:45:53 10° NNE 23:49:37 29° E 23:50:50 25° SE
Cosmos 1125 Rocket 3.9 23:44:49 10° NNW 23:49:58 54° WSW 23:52:41 26° S
SAR-Lupe-4 4.2 23:49:22 31° SSW 23:50:42 46° W 23:54:11 10° NNW
Cosmos 1766 3.3 23:48:18 10° N 23:52:17 75° ENE 23:53:46 37° SSE
Iridium 4 Rocket 4.5 23:50:00 24° SE 23:52:54 42° E 23:58:22 10° NNE
Cosmos 2228 3.1 23:49:37 10° N 23:53:53 64° ENE 23:55:39 33° SSE
Cosmos 2219 4.0 23:52:30 26° SSE 23:54:45 36° ESE 23:59:57 10° NE
